GW2474 Weather Reports


time (UTC)temp
F
wind
direction
speed
knots
gust
knots
rain 1hr
in
rain 24hr
in
rain mn
in
humidity
%
barometer
mb
20260506211556 54 326 4.3 9.6 0.00 0.04 0.00 40 1012.1
20260506210055 54 310 3.5 7.0 0.00 0.04 0.00 42 1012.1
20260506204555 54 309 4.3 7.8 0.00 0.04 0.00 43 1012.0
20260506203100 54 274 4.3 9.6 0.00 0.04 0.00 43 1012.0
20260506201555 54 286 4.3 8.7 0.00 0.04 0.00 41 1012.1
20260506200054 55 24 4.3 8.7 0.00 0.04 0.00 42 1012.1
20260506194556 54 349 7.0 10.4 0.00 0.04 0.00 41 1012.4
20260506193052 54 274 6.1 13.9 0.00 0.04 0.00 42 1012.4
20260506191552 54 292 5.2 13.0 0.00 0.04 0.00 44 1012.6
20260506190055 53 277 5.2 11.3 0.00 0.04 0.00 43 1012.7
20260506184557 52 315 5.2 10.4 0.00 0.04 0.00 43 1012.8
20260506183101 52 286 1.7 12.2 0.00 0.04 0.00 43 1012.7
20260506181602 52 328 5.2 12.2 0.00 0.04 0.00 44 1012.6
20260506180051 52 321 3.5 11.3 0.00 0.04 0.00 41 1012.6
20260506174551 52 341 6.1 13.0 0.00 0.04 0.00 40 1012.9
20260506173120 52 323 6.1 11.3 0.00 0.04 0.00 41 1012.9
20260506171553 51 329 5.2 13.0 0.00 0.04 0.00 43 1013.2
20260506170058 51 319 4.3 12.2 0.00 0.04 0.00 43 1013.2
20260506164549 51 343 4.3 12.2 0.00 0.04 0.00 42 1013.1
20260506163056 52 316 7.0 14.8 0.00 0.04 0.00 42 1013.1
20260506161551 52 309 7.0 14.8 0.00 0.04 0.00 42 1012.9
20260506160107 52 331 7.8 13.9 0.00 0.04 0.00 42 1012.8
20260506154554 51 339 7.8 13.9 0.00 0.04 0.00 42 1012.6
20260506153050 52 319 7.8 15.6 0.00 0.04 0.00 43 1012.5
20260506151549 51 342 5.2 11.3 0.00 0.04 0.00 49 1012.4
20260506150053 51 338 4.3 9.6 0.00 0.04 0.00 50 1012.2
20260506144556 50 270 4.3 8.7 0.00 0.04 0.00 51 1012.0
20260506143055 50 306 5.2 12.2 0.00 0.04 0.00 52 1012.1
20260506141554 50 338 5.2 9.6 0.00 0.04 0.00 51 1012.0
20260506140057 49 335 6.1 10.4 0.00 0.04 0.00 51 1012.0
20260506134549 49 290 5.2 10.4 0.00 0.04 0.00 53 1011.8
20260506133104 48 294 5.2 12.2 0.00 0.04 0.00 52 1011.6
20260506131602 48 360 6.1 10.4 0.00 0.04 0.00 54 1011.5
20260506130057 48 325 4.3 10.4 0.00 0.04 0.00 57 1011.4
20260506124557 47 348 5.2 12.2 0.00 0.04 0.00 58 1011.4
20260506123053 47 348 5.2 13.0 0.00 0.04 0.00 60 1011.3
20260506121552 46 306 3.5 7.8 0.00 0.04 0.00 63 1010.9
20260506120053 45 316 2.6 7.0 0.00 0.04 0.00 66 1010.5
20260506114550 44 331 2.6 5.2 0.00 0.04 0.00 67 1010.3
20260506113054 44 329 0.9 2.6 0.00 0.04 0.00 67 1010.2
20260506111553 45 329 0.9 3.5 0.00 0.04 0.00 67 1010.1
20260506110053 45 330 1.7 4.3 0.00 0.04 0.00 66 1009.9
20260506104557 45 321 2.6 6.1 0.00 0.04 0.00 67 1009.6
20260506103055 45 308 2.6 6.1 0.00 0.04 0.00 67 1009.5
20260506101556 45 321 2.6 5.2 0.00 0.04 0.00 68 1009.4
20260506100054 46 320 1.7 4.3 0.00 0.04 0.00 67 1009.3
20260506094622 46 321 2.6 6.1 0.00 0.04 0.00 67 1009.1
20260506093102 46 320 1.7 3.5 0.00 0.04 0.00 67 1009.1
20260506091602 46 323 0.9 4.3 0.00 0.04 0.00 67 1009.2
20260506090051 46 340 2.6 7.8 0.00 0.04 0.00 67 1009.0
20260506084551 46 336 2.6 4.3 0.00 0.04 0.00 68 1008.7
20260506083050 46 312 1.7 4.3 0.00 0.04 0.00 70 1008.7
20260506081551 45 325 1.7 4.3 0.00 0.04 0.00 74 1008.7
20260506073053 45 0 0.0 1.7 0.00 0.04 0.00 83 1008.5
20260506071551 45 279 0.9 2.6 0.00 0.04 0.00 84 1008.8
20260506061556 45 279 0.0 1.7 0.00 0.04 0.00 85 1009.1
20260506060112 45 279 0.9 1.7 0.00 0.04 0.00 85 1009.3
20260506044610 45 279 0.9 2.6 0.00 0.09 0.00 84 1009.3
20260506043055 45 279 0.9 2.6 0.00 0.09 0.00 84 1009.3
20260506041557 45 298 0.9 2.6 0.00 0.09 0.00 84 1009.3
20260506040057 46 0 0.0 2.6 0.00 0.09 0.00 84 1009.1
20260506034552 46 0 0.9 2.6 0.00 0.14 0.09 84 1009.2
20260506033057 46 298 0.0 2.6 0.00 0.14 0.09 84 1009.2
20260506031559 46 0 0.0 2.6 0.00 0.14 0.09 83 1008.8
20260506030055 46 298 0.9 2.6 0.00 0.14 0.09 83 1008.9
20260506024600 46 0 0.0 1.7 0.00 0.14 0.09 83 1008.8
20260506023058 46 0 0.0 1.7 0.00 0.14 0.09 82 1008.9
20260506021550 46 0 0.0 1.7 0.01 0.14 0.09 82 1008.9
20260506020055 46 0 0.0 1.7 0.01 0.14 0.09 81 1008.8
20260506014550 47 0 0.0 1.7 0.03 0.14 0.09 80 1008.8
20260506013052 47 298 0.0 2.6 0.02 0.13 0.08 78 1008.7
20260506011556 48 298 0.9 2.6 0.03 0.13 0.08 75 1008.6
20260506010054 49 311 0.9 3.5 0.03 0.13 0.08 71 1008.3
20260506004554 50 287 0.9 3.5 0.01 0.11 0.06 66 1008.3
20260506003053 51 352 2.6 6.1 0.01 0.11 0.06 60 1008.3
20260506001601 52 333 1.7 5.2 0.00 0.10 0.05 60 1008.4
20260506000054 52 333 0.9 4.3 0.00 0.10 0.05 62 1008.2
20260505234551 53 321 1.7 4.3 0.00 0.10 0.05 61 1008.1
20260505233048 53 300 0.9 5.2 0.00 0.10 0.05 61 1007.8
20260505231602 53 286 1.7 5.2 0.00 0.10 0.05 62 1007.7
20260505224554 53 279 1.7 4.3 0.00 0.12 0.05 68 1007.8
20260505223049 53 292 2.6 7.0 0.00 0.12 0.05 67 1007.7
20260505221553 53 334 2.6 8.7 0.00 0.12 0.05 66 1007.8
20260505220056 53 304 2.6 7.0 0.00 0.12 0.05 65 1007.9
20260505214555 53 298 2.6 7.8 0.00 0.12 0.05 65 1007.7
20260505213059 53 323 2.6 8.7 0.00 0.12 0.05 65 1007.7